GW5072 Weather Reports


time (UTC)temp
C
wind
direction
speed
KPH
gust
KPH
rain 1hr
cm
rain 24hr
cm
rain mn
cm
humidity
%
barometer
mb
20260504100510 13 91 0.0 0.0 0.00 0.00 0.00 89 1016.0
20260504082007 13 91 0.0 0.0 0.00 0.00 0.00 87 1016.5
20260504081519 13 91 0.0 0.0 0.00 0.00 0.00 87 1016.6
20260504081002 14 91 0.0 0.0 0.00 0.00 0.00 86 1016.5
20260504080506 14 91 0.0 0.0 0.00 0.00 0.00 86 1016.6
20260504050511 14 91 0.0 0.0 0.00 0.00 0.00 84 1018.7
20260504045507 15 91 0.0 0.0 0.00 0.00 0.00 83 1018.6
20260504045007 15 91 0.0 0.0 0.00 0.00 0.00 83 1018.6
20260504044524 15 91 0.0 0.0 0.00 0.00 0.00 83 1018.7
20260504044006 15 91 0.0 0.0 0.00 0.00 0.00 82 1018.7
20260504043507 15 91 0.0 0.0 0.00 0.00 0.00 82 1018.9
20260504043025 15 91 0.0 0.0 0.00 0.00 0.00 80 1018.8
20260504042510 15 91 0.0 0.0 0.00 0.00 0.00 81 1018.7
20260504042011 15 91 0.0 0.0 0.00 0.00 0.00 80 1018.8
20260504041520 15 91 0.0 0.0 0.00 0.00 0.00 80 1018.7
20260504041010 15 91 0.0 0.0 0.00 0.00 0.00 79 1018.8
20260504040507 15 91 0.0 0.0 0.00 0.00 0.00 78 1018.9
20260504040019 16 91 0.0 0.0 0.00 0.00 0.00 77 1018.8
20260504035511 16 91 0.0 0.0 0.00 0.00 0.00 78 1018.8
20260504035010 16 91 0.0 0.0 0.00 0.00 0.00 78 1018.9
20260504034528 16 91 0.0 0.0 0.00 0.00 0.00 78 1018.7
20260504034014 16 91 0.0 1.6 0.00 0.00 0.00 77 1018.8
20260504033508 16 91 0.0 1.6 0.00 0.00 0.00 79 1018.8
20260504033026 16 91 0.0 0.0 0.00 0.00 0.00 77 1018.7
20260504032510 16 91 0.0 0.0 0.00 0.00 0.00 76 1018.8
20260504032007 16 91 0.0 0.0 0.00 0.00 0.00 77 1018.7
20260504031529 16 91 0.0 0.0 0.00 0.00 0.00 77 1018.7
20260504031012 16 91 0.0 0.0 0.00 0.00 0.00 74 1018.6
20260504030506 17 91 0.0 0.0 0.00 0.00 0.00 74 1018.6
20260504030028 17 91 0.0 0.0 0.00 0.00 0.00 74 1018.5
20260504025508 17 90 0.0 0.0 0.00 0.00 0.00 75 1018.5
20260504025005 17 90 0.0 0.0 0.00 0.00 0.00 76 1018.5
20260504024527 17 90 0.0 0.0 0.00 0.00 0.00 74 1018.4
20260504024007 17 90 0.0 0.0 0.00 0.00 0.00 72 1018.4
20260504023506 17 90 0.0 0.0 0.00 0.00 0.00 73 1018.3
20260504023024 17 90 0.0 0.0 0.00 0.00 0.00 74 1018.3
20260504022504 17 90 0.0 1.6 0.00 0.00 0.00 73 1018.3
20260504022010 17 90 0.0 1.6 0.00 0.00 0.00 73 1018.4
20260504021522 17 90 0.0 0.0 0.00 0.00 0.00 73 1018.3
20260504021008 17 90 0.0 0.0 0.00 0.00 0.00 75 1018.1
20260504020509 17 90 0.0 0.0 0.00 0.00 0.00 73 1018.0
20260504020020 17 90 0.0 0.0 0.00 0.00 0.00 73 1018.1
20260504015512 17 90 0.0 0.0 0.00 0.00 0.00 72 1018.1
20260504015016 17 90 0.0 0.0 0.00 0.00 0.00 71 1017.9
20260504014524 18 90 0.0 0.0 0.00 0.00 0.00 66 1017.8
20260504014010 18 90 0.0 0.0 0.00 0.00 0.00 67 1017.8
20260504013510 18 90 0.0 0.0 0.00 0.00 0.00 68 1017.8
20260504013015 19 90 0.0 0.0 0.00 0.00 0.00 68 1017.8
20260504012513 19 90 0.0 0.0 0.00 0.00 0.00 67 1017.8
20260504012010 19 90 0.0 1.6 0.00 0.00 0.00 65 1017.7
20260504011527 19 90 0.0 1.6 0.00 0.00 0.00 66 1017.7
20260504011010 19 101 0.0 1.6 0.00 0.00 0.00 64 1017.6
20260504010513 20 101 0.0 0.0 0.00 0.00 0.00 63 1017.6
20260504010028 20 101 0.0 0.0 0.00 0.00 0.00 60 1017.6
20260504005508 20 101 0.0 0.0 0.00 0.00 0.00 61 1017.7
20260504005008 21 101 0.0 0.0 0.00 0.00 0.00 60 1017.6
20260504004526 21 101 0.0 0.0 0.00 0.00 0.00 56 1017.7
20260504004008 21 101 0.0 0.0 0.00 0.00 0.00 56 1017.5
20260504003511 22 101 0.0 0.0 0.00 0.00 0.00 56 1017.7
20260504003026 22 101 0.0 0.0 0.00 0.00 0.00 52 1017.7
20260504002503 23 101 0.0 0.0 0.00 0.00 0.00 53 1017.7
20260504002010 23 100 0.0 0.0 0.00 0.00 0.00 52 1017.8
20260504001525 23 100 0.0 1.6 0.00 0.00 0.00 52 1017.8
20260504001006 23 100 0.0 1.6 0.00 0.00 0.00 48 1017.6
20260504000504 24 103 0.0 1.6 0.00 0.00 0.00 48 1017.7
20260504000037 24 220 0.0 1.6 0.00 0.00 0.00 46 1017.9
20260503235505 24 220 0.0 1.6 0.00 0.00 0.00 46 1017.8
20260503235003 25 220 0.0 4.8 0.00 0.00 0.00 45 1017.9
20260503234519 25 220 0.0 4.8 0.00 0.00 0.00 46 1017.8
20260503234004 25 87 0.0 1.6 0.00 0.00 0.00 46 1017.8
20260503233502 25 95 0.0 0.0 0.00 0.00 0.00 44 1017.8
20260503233021 25 96 0.0 0.0 0.00 0.00 0.00 45 1018.0
20260503232504 25 96 0.0 1.6 0.00 0.00 0.00 41 1017.9
20260503232007 25 96 0.0 1.6 0.00 0.00 0.00 41 1017.9
20260503231514 26 93 0.0 3.2 0.00 0.00 0.00 41 1018.0
20260503231004 26 92 0.0 3.2 0.00 0.00 0.00 39 1018.2
20260503230504 26 173 0.0 3.2 0.00 0.00 0.00 43 1018.0
20260503230009 26 86 0.0 1.6 0.00 0.00 0.00 43 1017.9
20260503225513 26 86 0.0 3.2 0.00 0.00 0.00 41 1018.0
20260503225006 26 85 0.0 3.2 0.00 0.00 0.00 39 1018.2
20260503224507 26 136 0.0 1.6 0.00 0.00 0.00 41 1018.3
20260503224014 26 136 0.0 1.6 0.00 0.00 0.00 38 1018.3
20260503223504 27 121 0.0 3.2 0.00 0.00 0.00 38 1018.3
20260503223008 27 143 0.0 4.8 0.00 0.00 0.00 38 1018.4
20260503222506 27 204 1.6 4.8 0.00 0.00 0.00 37 1018.5
20260503222004 27 230 0.0 8.0 0.00 0.00 0.00 38 1018.5
20260503221526 27 207 0.0 8.0 0.00 0.00 0.00 40 1018.6
20260503221009 27 215 1.6 8.0 0.00 0.00 0.00 41 1018.7
20260503220504 27 221 0.0 3.2 0.00 0.00 0.00 40 1018.9
20260503220027 27 74 0.0 3.2 0.00 0.00 0.00 37 1018.8
20260503215506 27 108 0.0 8.0 0.00 0.00 0.00 38 1018.7
20260503215003 27 259 1.6 8.0 0.00 0.00 0.00 38 1018.7
20260503214529 28 101 0.0 1.6 0.00 0.00 0.00 41 1018.7
20260503214003 28 84 0.0 1.6 0.00 0.00 0.00 38 1018.8
20260503213512 28 118 0.0 1.6 0.00 0.00 0.00 37 1018.8
20260503213020 27 125 0.0 3.2 0.00 0.00 0.00 38 1019.0
20260503212502 28 238 0.0 3.2 0.00 0.00 0.00 36 1019.2
20260503212011 28 195 0.0 3.2 0.00 0.00 0.00 36 1019.4
20260503211515 27 212 0.0 4.8 0.00 0.00 0.00 36 1019.5
20260503211004 27 202 0.0 4.8 0.00 0.00 0.00 36 1019.5
20260503210507 27 229 0.0 4.8 0.00 0.00 0.00 39 1019.6
20260503210036 27 241 0.0 6.4 0.00 0.00 0.00 40 1019.6
20260503205511 27 217 0.0 6.4 0.00 0.00 0.00 41 1019.6
20260503205007 27 29 3.2 6.4 0.00 0.00 0.00 36 1019.6
20260503204511 27 250 0.0 4.8 0.00 0.00 0.00 42 1019.8
20260503204010 26 250 0.0 4.8 0.00 0.00 0.00 42 1019.9
20260503203503 26 221 1.6 4.8 0.00 0.00 0.00 40 1020.0
20260503203028 26 115 0.0 4.8 0.00 0.00 0.00 41 1020.1
20260503202510 27 41 1.6 4.8 0.00 0.00 0.00 38 1020.2
20260503202005 27 279 0.0 3.2 0.00 0.00 0.00 40 1020.3
20260503201533 27 280 0.0 4.8 0.00 0.00 0.00 42 1020.4
20260503201004 27 252 1.6 4.8 0.00 0.00 0.00 38 1020.4
20260503200503 28 131 0.0 3.2 0.00 0.00 0.00 36 1020.6
20260503200023 28 209 0.0 6.4 0.00 0.00 0.00 41 1020.6
20260503195504 28 191 1.6 6.4 0.00 0.00 0.00 39 1020.7
20260503195010 28 226 0.0 3.2 0.00 0.00 0.00 38 1020.8
20260503194521 28 171 0.0 3.2 0.00 0.00 0.00 38 1020.9
20260503194003 28 79 0.0 4.8 0.00 0.00 0.00 36 1020.8
20260503193507 28 248 0.0 4.8 0.00 0.00 0.00 42 1020.9
20260503193017 28 25 0.0 4.8 0.00 0.00 0.00 38 1021.1
20260503192504 27 148 0.0 3.2 0.00 0.00 0.00 41 1021.2
20260503192008 27 242 1.6 6.4 0.00 0.00 0.00 37 1021.3
20260503191517 27 255 0.0 6.4 0.00 0.00 0.00 47 1021.2
20260503191012 27 15 3.2 6.4 0.00 0.00 0.00 36 1021.3
20260503190506 28 123 0.0 4.8 0.00 0.00 0.00 39 1021.5
20260503190012 28 152 0.0 4.8 0.00 0.00 0.00 39 1021.6
20260503185507 27 293 0.0 4.8 0.00 0.00 0.00 40 1021.5
20260503185011 27 233 0.0 6.4 0.00 0.00 0.00 41 1021.5
20260503184529 27 195 0.0 9.7 0.00 0.00 0.00 41 1021.6
20260503184011 27 248 0.0 9.7 0.00 0.00 0.00 43 1021.7
20260503183504 26 263 3.2 6.4 0.00 0.00 0.00 46 1021.8
20260503183027 26 63 1.6 6.4 0.00 0.00 0.00 41 1021.8
20260503182507 26 88 1.6 3.2 0.00 0.00 0.00 41 1021.8
20260503182007 26 53 0.0 6.4 0.00 0.00 0.00 44 1021.9
20260503181524 25 72 0.0 6.4 0.00 0.00 0.00 40 1022.1
20260503181004 26 32 3.2 6.4 0.00 0.00 0.00 39 1022.2
20260503180509 26 47 1.6 4.8 0.00 0.00 0.00 40 1022.2
20260503180024 26 155 0.0 4.8 0.00 0.00 0.00 43 1022.4
20260503175507 26 222 1.6 4.8 0.00 0.00 0.00 44 1022.5
20260503175013 26 78 1.6 4.8 0.00 0.00 0.00 42 1022.5
20260503174523 26 81 1.6 4.8 0.00 0.00 0.00 43 1022.7
20260503174004 26 47 3.2 4.8 0.00 0.00 0.00 40 1022.7
20260503173508 27 99 0.0 4.8 0.00 0.00 0.00 40 1022.9
20260503173020 27 267 0.0 4.8 0.00 0.00 0.00 41 1023.0
20260503172509 27 205 0.0 3.2 0.00 0.00 0.00 43 1023.0
20260503172013 27 294 0.0 6.4 0.00 0.00 0.00 44 1023.0
20260503171518 26 190 0.0 6.4 0.00 0.00 0.00 48 1023.1
20260503171010 26 203 0.0 3.2 0.00 0.00 0.00 45 1023.2
20260503170508 25 213 0.0 3.2 0.00 0.00 0.00 47 1023.2
20260503151003 20 203 0.0 4.8 0.00 0.00 0.00 66 1023.1
20260503150503 20 91 0.0 4.8 0.00 0.00 0.00 66 1023.0
20260503131003 12 324 0.0 0.0 0.00 0.03 0.00 97 1022.5
20260503130507 12 324 0.0 0.0 0.00 0.03 0.00 97 1022.4
20260503110510 10 325 0.0 0.0 0.00 0.03 0.00 95 1021.6